Darstellungsparameter: Aktuell verwendete Einstellungen:
Skalierung der Graphiken ... ?
xyx+y,   Skalierungsfaktor:      Skalierung: Modus: x, Faktor: 1
Darstellungszeitraum ... ?
Vom - - bis: - -   Zeitraum: 02.10.2021 - 04.10.2021
Min/Max/Avg-Anzeige ... ?
Zeige MMA aktuell
Zeige MMA Monat
Zeige MMA alles
Zeige --A aktuell
Zeige --A Monat
Zeige --A alles
Keine MMA-Anzeige
MMA:
Keine MMA-Graphiken
MMA-Basis: 02.10.2021 - 04.10.2021
Quicknavigation für Darstellung... ?
Tage:      1T, 2T, 3T, 5T -1T -2T -3T -5T +1T +2T +3T +5T
Wochen: 1W, 2W, 3W -1W -2W -3W +1W +2W +3W
Monate: 1M, 3M, 6M -1M -3M -6M +1M +3M +6M
Jahre:    1J, 3J, 5J, 10J -1J -3J -5J -10J +1J +3J +5J +10J
Nutze für die Darstellung ... ?
Originaldaten oder Mittelwerte auf ...
Stundenbasis Tagesbasis Wochenbasis
Monatsbasis Jahresbasis      Datenbasis: Original-Daten
Darstellen als:
Statistik (Auto) Statistik J:M      Darstellung:
Zur Graphik,    zurück zur Übersicht aller Sensoren.
 
Tabellarische Datenbersicht: ?
 
Sensor: Nr:Datum:Temp:Feuchte:Taupunkt:
Aussen-T/F 1 02-10-2021 00:00:00 12.3 C 91 % 10.87 C
2 02-10-2021 00:05:00 12.3 C 91 % 10.87 C
3 02-10-2021 00:10:00 12.3 C 91 % 10.87 C
4 02-10-2021 00:15:00 12.2 C 91 % 10.78 C
5 02-10-2021 00:20:00 12.2 C 91 % 10.78 C
6 02-10-2021 00:25:00 12.2 C 91 % 10.78 C
7 02-10-2021 00:30:00 12.2 C 91 % 10.78 C
8 02-10-2021 00:35:00 12.2 C 91 % 10.78 C
9 02-10-2021 00:40:00 12.1 C 91 % 10.68 C
10 02-10-2021 00:45:00 12.1 C 91 % 10.68 C
11 02-10-2021 00:50:00 12.2 C 91 % 10.78 C
12 02-10-2021 00:55:00 12.2 C 91 % 10.78 C
13 02-10-2021 01:00:00 12.4 C 89 % 10.64 C
14 02-10-2021 01:05:00 12.8 C 88 % 10.86 C
15 02-10-2021 01:10:00 13.1 C 87 % 10.99 C
16 02-10-2021 01:15:00 13.2 C 86 % 10.91 C
17 02-10-2021 01:20:00 13.3 C 85 % 10.83 C
18 02-10-2021 01:25:00 13.5 C 84 % 10.85 C
19 02-10-2021 01:30:00 13.6 C 85 % 11.13 C
20 02-10-2021 01:35:00 13.7 C 83 % 10.87 C
21 02-10-2021 01:40:00 13.8 C 84 % 11.15 C
22 02-10-2021 01:45:00 13.8 C 84 % 11.15 C
23 02-10-2021 01:50:00 13.8 C 84 % 11.15 C
24 02-10-2021 01:55:00 13.8 C 84 % 11.15 C
25 02-10-2021 02:00:00 13.7 C 84 % 11.05 C
Sensor: Nr:Datum:Temp:Feuchte:Taupunkt:
Aussen-T/F 26 02-10-2021 02:05:00 13.7 C 84 % 11.05 C
27 02-10-2021 02:10:00 13.7 C 84 % 11.05 C
28 02-10-2021 02:15:00 13.7 C 84 % 11.05 C
29 02-10-2021 02:20:00 13.7 C 84 % 11.05 C
30 02-10-2021 02:25:00 13.6 C 85 % 11.13 C
31 02-10-2021 02:30:00 13.6 C 85 % 11.13 C
32 02-10-2021 02:35:00 13.6 C 85 % 11.13 C
33 02-10-2021 02:40:00 13.5 C 86 % 11.21 C
34 02-10-2021 02:45:00 13.4 C 86 % 11.11 C
35 02-10-2021 02:50:00 13.4 C 86 % 11.11 C
36 02-10-2021 02:55:00 13.3 C 87 % 11.18 C
37 02-10-2021 03:00:00 13.3 C 86 % 11.01 C
38 02-10-2021 03:05:00 13.3 C 86 % 11.01 C
39 02-10-2021 03:10:00 13.3 C 87 % 11.18 C
40 02-10-2021 03:15:00 13.3 C 87 % 11.18 C
41 02-10-2021 03:20:00 13.4 C 88 % 11.45 C
42 02-10-2021 03:25:00 13.4 C 88 % 11.45 C
43 02-10-2021 03:30:00 13.3 C 89 % 11.53 C
44 02-10-2021 03:35:00 13.2 C 89 % 11.43 C
45 02-10-2021 03:40:00 13.2 C 90 % 11.6 C
46 02-10-2021 03:45:00 13.1 C 90 % 11.5 C
47 02-10-2021 03:50:00 13 C 90 % 11.4 C
48 02-10-2021 03:55:00 12.9 C 91 % 11.47 C
49 02-10-2021 04:00:00 12.9 C 91 % 11.47 C
50 02-10-2021 04:05:00 12.8 C 91 % 11.37 C
Sensor: Nr:Datum:Temp:Feuchte:Taupunkt:
Aussen-T/F 51 02-10-2021 04:10:00 12.8 C 91 % 11.37 C
52 02-10-2021 04:15:00 12.8 C 92 % 11.53 C
53 02-10-2021 04:20:00 12.8 C 92 % 11.53 C
54 02-10-2021 04:25:00 12.8 C 92 % 11.53 C
55 02-10-2021 04:30:00 12.8 C 92 % 11.53 C
56 02-10-2021 04:35:00 12.8 C 92 % 11.53 C
57 02-10-2021 04:40:00 12.8 C 92 % 11.53 C
58 02-10-2021 04:45:00 12.8 C 92 % 11.53 C
59 02-10-2021 04:50:00 12.8 C 92 % 11.53 C
60 02-10-2021 04:55:00 12.8 C 92 % 11.53 C
61 02-10-2021 05:00:00 12.8 C 92 % 11.53 C
62 02-10-2021 05:05:00 12.8 C 92 % 11.53 C
63 02-10-2021 05:10:00 12.8 C 92 % 11.53 C
64 02-10-2021 05:15:00 12.8 C 93 % 11.7 C
65 02-10-2021 05:20:00 12.8 C 93 % 11.7 C
66 02-10-2021 05:25:00 12.8 C 93 % 11.7 C
67 02-10-2021 05:30:00 12.8 C 93 % 11.7 C
68 02-10-2021 05:35:00 12.8 C 93 % 11.7 C
69 02-10-2021 05:40:00 12.8 C 93 % 11.7 C
70 02-10-2021 05:45:00 12.8 C 93 % 11.7 C
71 02-10-2021 05:50:00 12.8 C 93 % 11.7 C
72 02-10-2021 05:55:00 12.8 C 93 % 11.7 C
73 02-10-2021 06:00:00 12.8 C 93 % 11.7 C
74 02-10-2021 06:05:00 12.9 C 93 % 11.8 C
75 02-10-2021 06:10:00 12.9 C 93 % 11.8 C
Sensor: Nr:Datum:Temp:Feuchte:Taupunkt:
Aussen-T/F 76 02-10-2021 06:15:00 12.9 C 93 % 11.8 C
77 02-10-2021 06:20:00 12.9 C 93 % 11.8 C
78 02-10-2021 06:25:00 12.9 C 93 % 11.8 C
79 02-10-2021 06:30:00 12.9 C 93 % 11.8 C
80 02-10-2021 06:35:00 12.9 C 93 % 11.8 C
81 02-10-2021 06:40:00 12.9 C 93 % 11.8 C
82 02-10-2021 06:45:00 12.8 C 93 % 11.7 C
83 02-10-2021 06:50:00 12.8 C 93 % 11.7 C
84 02-10-2021 06:55:00 12.8 C 93 % 11.7 C
85 02-10-2021 07:00:00 12.8 C 93 % 11.7 C
86 02-10-2021 07:05:00 12.8 C 93 % 11.7 C
87 02-10-2021 07:10:00 12.8 C 93 % 11.7 C
88 02-10-2021 07:15:00 12.8 C 93 % 11.7 C
89 02-10-2021 07:20:00 12.8 C 93 % 11.7 C
90 02-10-2021 07:25:00 12.8 C 94 % 11.86 C
91 02-10-2021 07:30:00 12.8 C 94 % 11.86 C
92 02-10-2021 07:35:00 12.8 C 94 % 11.86 C
93 02-10-2021 07:40:00 12.8 C 94 % 11.86 C
94 02-10-2021 07:45:00 12.8 C 94 % 11.86 C
95 02-10-2021 07:50:00 12.8 C 94 % 11.86 C
96 02-10-2021 07:55:00 12.8 C 94 % 11.86 C
97 02-10-2021 08:00:00 12.8 C 94 % 11.86 C
98 02-10-2021 08:05:00 12.8 C 94 % 11.86 C
99 02-10-2021 08:10:00 12.8 C 94 % 11.86 C
100 02-10-2021 08:15:00 12.8 C 94 % 11.86 C
Sensor: Nr:Datum:Temp:Feuchte:Taupunkt:
Aussen-T/F 101 02-10-2021 08:20:00 12.8 C 94 % 11.86 C
102 02-10-2021 08:25:00 12.8 C 94 % 11.86 C
103 02-10-2021 08:30:00 12.8 C 94 % 11.86 C
104 02-10-2021 08:35:00 12.8 C 94 % 11.86 C
105 02-10-2021 08:40:00 12.8 C 94 % 11.86 C
106 02-10-2021 08:45:00 12.9 C 95 % 12.12 C
107 02-10-2021 08:50:00 12.9 C 95 % 12.12 C
108 02-10-2021 08:55:00 13 C 95 % 12.22 C
109 02-10-2021 09:00:00 13.1 C 95 % 12.32 C
110 02-10-2021 09:05:00 13.1 C 95 % 12.32 C
111 02-10-2021 09:10:00 13.2 C 95 % 12.42 C
112 02-10-2021 09:15:00 13.2 C 95 % 12.42 C
113 02-10-2021 09:20:00 13.2 C 94 % 12.26 C
114 02-10-2021 09:25:00 13.3 C 94 % 12.36 C
115 02-10-2021 09:30:00 13.3 C 94 % 12.36 C
116 02-10-2021 09:35:00 13.4 C 94 % 12.45 C
117 02-10-2021 09:40:00 13.5 C 94 % 12.55 C
118 02-10-2021 09:45:00 13.6 C 94 % 12.65 C
119 02-10-2021 09:50:00 13.7 C 93 % 12.59 C
120 02-10-2021 09:55:00 13.7 C 93 % 12.59 C
121 02-10-2021 10:00:00 13.8 C 93 % 12.69 C
122 02-10-2021 10:05:00 14 C 93 % 12.89 C
123 02-10-2021 10:10:00 14.1 C 93 % 12.99 C
124 02-10-2021 10:15:00 14.2 C 93 % 13.08 C
125 02-10-2021 10:20:00 14.3 C 93 % 13.18 C
Sensor: Nr:Datum:Temp:Feuchte:Taupunkt:
Aussen-T/F 126 02-10-2021 10:25:00 14.4 C 92 % 13.12 C
127 02-10-2021 10:30:00 14.5 C 92 % 13.22 C
128 02-10-2021 10:35:00 14.6 C 91 % 13.15 C
129 02-10-2021 10:40:00 14.7 C 90 % 13.08 C
130 02-10-2021 10:45:00 14.7 C 89 % 12.91 C
131 02-10-2021 10:50:00 14.8 C 89 % 13.01 C
132 02-10-2021 10:55:00 14.9 C 90 % 13.28 C
133 02-10-2021 11:00:00 14.9 C 90 % 13.28 C
134 02-10-2021 11:05:00 15 C 89 % 13.2 C
135 02-10-2021 11:10:00 15.1 C 89 % 13.3 C
136 02-10-2021 11:15:00 15.2 C 88 % 13.23 C
137 02-10-2021 11:20:00 15.2 C 88 % 13.23 C
138 02-10-2021 11:25:00 15.3 C 88 % 13.33 C
139 02-10-2021 11:30:00 15.4 C 88 % 13.42 C
140 02-10-2021 11:35:00 15.5 C 88 % 13.52 C
141 02-10-2021 11:40:00 15.6 C 88 % 13.62 C
142 02-10-2021 11:45:00 15.6 C 86 % 13.27 C
143 02-10-2021 11:50:00 15.6 C 87 % 13.45 C
144 02-10-2021 11:55:00 15.6 C 87 % 13.45 C
145 02-10-2021 12:00:00 15.6 C 86 % 13.27 C
146 02-10-2021 12:05:00 15.7 C 86 % 13.37 C
147 02-10-2021 12:10:00 15.9 C 85 % 13.38 C
148 02-10-2021 12:15:00 16 C 85 % 13.48 C
149 02-10-2021 12:20:00 16.1 C 85 % 13.58 C
150 02-10-2021 12:25:00 16.1 C 84 % 13.4 C
Sensor: Nr:Datum:Temp:Feuchte:Taupunkt:
Aussen-T/F 151 02-10-2021 12:30:00 16.1 C 84 % 13.4 C
152 02-10-2021 12:35:00 16.2 C 85 % 13.68 C
153 02-10-2021 12:40:00 16.2 C 85 % 13.68 C
154 02-10-2021 12:45:00 16.2 C 86 % 13.86 C
155 02-10-2021 12:50:00 16.2 C 86 % 13.86 C
156 02-10-2021 12:55:00 16.3 C 85 % 13.77 C
157 02-10-2021 13:00:00 16.2 C 85 % 13.68 C
158 02-10-2021 13:05:00 16.2 C 85 % 13.68 C
159 02-10-2021 13:10:00 16.2 C 84 % 13.5 C
160 02-10-2021 13:15:00 16.4 C 84 % 13.69 C
161 02-10-2021 13:20:00 16.6 C 84 % 13.89 C
162 02-10-2021 13:25:00 16.8 C 83 % 13.9 C
163 02-10-2021 13:30:00 17.1 C 82 % 14 C
164 02-10-2021 13:35:00 17.2 C 81 % 13.91 C
165 02-10-2021 13:40:00 17.2 C 80 % 13.72 C
166 02-10-2021 13:45:00 17.2 C 81 % 13.91 C
167 02-10-2021 13:50:00 17.2 C 80 % 13.72 C
168 02-10-2021 13:55:00 17.2 C 81 % 13.91 C
169 02-10-2021 14:00:00 17.1 C 80 % 13.62 C
170 02-10-2021 14:05:00 17.1 C 81 % 13.82 C
171 02-10-2021 14:10:00 17.1 C 81 % 13.82 C
172 02-10-2021 14:15:00 17.1 C 81 % 13.82 C
173 02-10-2021 14:20:00 17.2 C 80 % 13.72 C
174 02-10-2021 14:25:00 17.3 C 80 % 13.82 C
175 02-10-2021 14:30:00 17.5 C 80 % 14.01 C
Sensor: Nr:Datum:Temp:Feuchte:Taupunkt:
Aussen-T/F 176 02-10-2021 14:35:00 17.6 C 78 % 13.72 C
177 02-10-2021 14:40:00 17.8 C 79 % 14.11 C
178 02-10-2021 14:45:00 17.8 C 78 % 13.91 C
179 02-10-2021 14:50:00 17.9 C 76 % 13.61 C
180 02-10-2021 14:55:00 18.1 C 77 % 14.01 C
181 02-10-2021 15:00:00 18.2 C 77 % 14.1 C
182 02-10-2021 15:05:00 18.2 C 76 % 13.9 C
183 02-10-2021 15:10:00 18.2 C 75 % 13.7 C
184 02-10-2021 15:15:00 18.3 C 76 % 14 C
185 02-10-2021 15:20:00 18.4 C 75 % 13.89 C
186 02-10-2021 15:25:00 18.5 C 76 % 14.19 C
187 02-10-2021 15:30:00 18.6 C 78 % 14.69 C
188 02-10-2021 15:35:00 18.7 C 79 % 14.99 C
189 02-10-2021 15:40:00 18.7 C 80 % 15.18 C
190 02-10-2021 15:45:00 18.7 C 81 % 15.37 C
191 02-10-2021 15:50:00 18.7 C 81 % 15.37 C
192 02-10-2021 15:55:00 18.6 C 81 % 15.28 C
193 02-10-2021 16:00:00 18.5 C 81 % 15.18 C
194 02-10-2021 16:05:00 18.3 C 80 % 14.79 C
195 02-10-2021 16:10:00 18.3 C 81 % 14.98 C
196 02-10-2021 16:15:00 18.2 C 80 % 14.69 C
197 02-10-2021 16:20:00 18.2 C 79 % 14.5 C
198 02-10-2021 16:25:00 18.1 C 80 % 14.6 C
199 02-10-2021 16:30:00 18.2 C 81 % 14.89 C
200 02-10-2021 16:35:00 18.1 C 81 % 14.79 C
Sensor: Nr:Datum:Temp:Feuchte:Taupunkt:
Aussen-T/F 201 02-10-2021 16:40:00 18.1 C 82 % 14.98 C
202 02-10-2021 16:45:00 18.1 C 83 % 15.17 C
203 02-10-2021 16:50:00 18 C 82 % 14.88 C
204 02-10-2021 16:55:00 17.9 C 82 % 14.78 C
205 02-10-2021 17:00:00 17.9 C 83 % 14.97 C
206 02-10-2021 17:05:00 17.9 C 84 % 15.16 C
207 02-10-2021 17:10:00 17.9 C 84 % 15.16 C
208 02-10-2021 17:15:00 17.9 C 84 % 15.16 C
209 02-10-2021 17:20:00 17.9 C 85 % 15.34 C
210 02-10-2021 17:25:00 17.9 C 83 % 14.97 C
211 02-10-2021 17:30:00 17.8 C 81 % 14.5 C
212 02-10-2021 17:35:00 17.8 C 83 % 14.88 C
213 02-10-2021 17:40:00 17.9 C 84 % 15.16 C
214 02-10-2021 17:45:00 17.8 C 84 % 15.06 C
215 02-10-2021 17:50:00 17.7 C 84 % 14.96 C
216 02-10-2021 17:55:00 17.6 C 84 % 14.87 C
217 02-10-2021 18:00:00 17.4 C 85 % 14.85 C
218 02-10-2021 18:05:00 17.3 C 85 % 14.76 C
219 02-10-2021 18:10:00 17.1 C 85 % 14.56 C
220 02-10-2021 18:15:00 16.9 C 85 % 14.36 C
221 02-10-2021 18:20:00 16.7 C 86 % 14.35 C
222 02-10-2021 18:25:00 16.6 C 86 % 14.25 C
223 02-10-2021 18:30:00 16.4 C 86 % 14.05 C
224 02-10-2021 18:35:00 16.3 C 87 % 14.13 C
225 02-10-2021 18:40:00 16.1 C 87 % 13.94 C
Sensor: Nr:Datum:Temp:Feuchte:Taupunkt:
Aussen-T/F 226 02-10-2021 18:45:00 15.9 C 87 % 13.74 C
227 02-10-2021 18:50:00 15.8 C 87 % 13.64 C
228 02-10-2021 18:55:00 15.7 C 87 % 13.54 C
229 02-10-2021 19:00:00 15.6 C 88 % 13.62 C
230 02-10-2021 19:05:00 15.6 C 88 % 13.62 C
231 02-10-2021 19:10:00 15.4 C 88 % 13.42 C
232 02-10-2021 19:15:00 15.3 C 89 % 13.5 C
233 02-10-2021 19:20:00 15.3 C 89 % 13.5 C
234 02-10-2021 19:25:00 15.2 C 89 % 13.4 C
235 02-10-2021 19:30:00 15.1 C 89 % 13.3 C
236 02-10-2021 19:35:00 15.1 C 89 % 13.3 C
237 02-10-2021 19:40:00 15 C 90 % 13.37 C
238 02-10-2021 19:45:00 14.9 C 90 % 13.28 C
239 02-10-2021 19:50:00 14.9 C 90 % 13.28 C
240 02-10-2021 19:55:00 14.8 C 89 % 13.01 C
241 02-10-2021 20:00:00 14.8 C 90 % 13.18 C
242 02-10-2021 20:05:00 14.8 C 90 % 13.18 C
243 02-10-2021 20:10:00 14.8 C 90 % 13.18 C
244 02-10-2021 20:15:00 14.7 C 90 % 13.08 C
245 02-10-2021 20:20:00 14.7 C 89 % 12.91 C
246 02-10-2021 20:25:00 14.7 C 89 % 12.91 C
247 02-10-2021 20:30:00 14.7 C 88 % 12.73 C
248 02-10-2021 20:35:00 14.8 C 88 % 12.83 C
249 02-10-2021 20:40:00 14.9 C 88 % 12.93 C
250 02-10-2021 20:45:00 15.1 C 88 % 13.13 C
Sensor: Nr:Datum:Temp:Feuchte:Taupunkt:
Aussen-T/F 251 02-10-2021 20:50:00 15.1 C 88 % 13.13 C
252 02-10-2021 20:55:00 15.1 C 88 % 13.13 C
253 02-10-2021 21:00:00 15.2 C 88 % 13.23 C
254 02-10-2021 21:05:00 15.2 C 88 % 13.23 C
255 02-10-2021 21:10:00 15.2 C 88 % 13.23 C
256 02-10-2021 21:15:00 15.3 C 88 % 13.33 C
257 02-10-2021 21:20:00 15.3 C 87 % 13.15 C
258 02-10-2021 21:25:00 15.3 C 87 % 13.15 C
259 02-10-2021 21:30:00 15.3 C 87 % 13.15 C
260 02-10-2021 21:35:00 15.4 C 86 % 13.07 C
261 02-10-2021 21:40:00 15.6 C 86 % 13.27 C
262 02-10-2021 21:45:00 15.7 C 86 % 13.37 C
263 02-10-2021 21:50:00 15.8 C 84 % 13.1 C
264 02-10-2021 21:55:00 16.1 C 85 % 13.58 C
265 02-10-2021 22:00:00 16.2 C 86 % 13.86 C
266 02-10-2021 22:05:00 16.2 C 86 % 13.86 C
267 02-10-2021 22:10:00 16.2 C 85 % 13.68 C
268 02-10-2021 22:15:00 16.1 C 85 % 13.58 C
269 02-10-2021 22:20:00 16.1 C 86 % 13.76 C
270 02-10-2021 22:25:00 16.1 C 86 % 13.76 C
271 02-10-2021 22:30:00 16.2 C 86 % 13.86 C
272 02-10-2021 22:35:00 16.2 C 87 % 14.03 C
273 02-10-2021 22:40:00 16.2 C 86 % 13.86 C
274 02-10-2021 22:45:00 16.4 C 86 % 14.05 C
275 02-10-2021 22:50:00 16.6 C 85 % 14.07 C
Sensor: Nr:Datum:Temp:Feuchte:Taupunkt:
Aussen-T/F 276 02-10-2021 22:55:00 16.7 C 85 % 14.17 C
277 02-10-2021 23:00:00 16.9 C 83 % 14 C
278 02-10-2021 23:05:00 17.3 C 81 % 14.01 C
279 02-10-2021 23:10:00 17.6 C 82 % 14.49 C
280 02-10-2021 23:15:00 17.7 C 81 % 14.4 C
281 02-10-2021 23:20:00 17.8 C 80 % 14.31 C
282 02-10-2021 23:25:00 17.8 C 80 % 14.31 C
283 02-10-2021 23:30:00 17.8 C 81 % 14.5 C
284 02-10-2021 23:35:00 17.8 C 80 % 14.31 C
285 02-10-2021 23:40:00 17.8 C 80 % 14.31 C
286 02-10-2021 23:45:00 17.8 C 79 % 14.11 C
287 02-10-2021 23:50:00 17.8 C 80 % 14.31 C
288 02-10-2021 23:55:00 17.9 C 79 % 14.21 C
289 03-10-2021 00:00:00 17.9 C 79 % 14.21 C
290 03-10-2021 00:05:00 17.9 C 79 % 14.21 C
291 03-10-2021 00:10:00 17.9 C 79 % 14.21 C
292 03-10-2021 00:15:00 17.9 C 79 % 14.21 C
293 03-10-2021 00:20:00 18.1 C 78 % 14.21 C
294 03-10-2021 00:25:00 18.1 C 79 % 14.4 C
295 03-10-2021 00:30:00 18.1 C 77 % 14.01 C
296 03-10-2021 00:35:00 18.2 C 77 % 14.1 C
297 03-10-2021 00:40:00 18.2 C 78 % 14.3 C
298 03-10-2021 00:45:00 18.2 C 78 % 14.3 C
299 03-10-2021 00:50:00 18.1 C 77 % 14.01 C
300 03-10-2021 00:55:00 18.3 C 77 % 14.2 C
Sensor: Nr:Datum:Temp:Feuchte:Taupunkt:
Aussen-T/F 301 03-10-2021 01:00:00 18.3 C 77 % 14.2 C
302 03-10-2021 01:05:00 18.3 C 77 % 14.2 C
303 03-10-2021 01:10:00 18.3 C 76 % 14 C
304 03-10-2021 01:15:00 18.3 C 77 % 14.2 C
305 03-10-2021 01:20:00 18.3 C 75 % 13.79 C
306 03-10-2021 01:25:00 18.4 C 77 % 14.3 C
307 03-10-2021 01:30:00 18.4 C 77 % 14.3 C
308 03-10-2021 01:35:00 18.3 C 75 % 13.79 C
309 03-10-2021 01:40:00 18.3 C 77 % 14.2 C
310 03-10-2021 01:45:00 18.3 C 77 % 14.2 C
311 03-10-2021 01:50:00 18.2 C 76 % 13.9 C
312 03-10-2021 01:55:00 18.2 C 77 % 14.1 C
313 03-10-2021 02:00:00 18.2 C 75 % 13.7 C
314 03-10-2021 02:05:00 18.2 C 75 % 13.7 C
315 03-10-2021 02:10:00 18.3 C 74 % 13.59 C
316 03-10-2021 02:15:00 18.6 C 73 % 13.67 C
317 03-10-2021 02:20:00 18.8 C 73 % 13.86 C
318 03-10-2021 02:25:00 18.9 C 73 % 13.96 C
319 03-10-2021 02:30:00 19 C 71 % 13.63 C
320 03-10-2021 02:35:00 19.2 C 70 % 13.6 C
321 03-10-2021 02:40:00 19.3 C 70 % 13.69 C
322 03-10-2021 02:45:00 19.3 C 71 % 13.91 C
323 03-10-2021 02:50:00 19.2 C 70 % 13.6 C
324 03-10-2021 02:55:00 19.2 C 71 % 13.82 C
325 03-10-2021 03:00:00 19.1 C 72 % 13.94 C
Sensor: Nr:Datum:Temp:Feuchte:Taupunkt:
Aussen-T/F 326 03-10-2021 03:05:00 19 C 72 % 13.84 C
327 03-10-2021 03:10:00 18.9 C 74 % 14.17 C
328 03-10-2021 03:15:00 18.9 C 73 % 13.96 C
329 03-10-2021 03:20:00 18.9 C 72 % 13.74 C
330 03-10-2021 03:25:00 18.9 C 74 % 14.17 C
331 03-10-2021 03:30:00 18.9 C 73 % 13.96 C
332 03-10-2021 03:35:00 18.9 C 73 % 13.96 C
333 03-10-2021 03:40:00 18.9 C 73 % 13.96 C
334 03-10-2021 03:45:00 19 C 72 % 13.84 C
335 03-10-2021 03:50:00 19.2 C 73 % 14.25 C
336 03-10-2021 03:55:00 19.2 C 72 % 14.03 C
337 03-10-2021 04:00:00 19.2 C 73 % 14.25 C
338 03-10-2021 04:05:00 19.2 C 72 % 14.03 C
339 03-10-2021 04:10:00 19.2 C 73 % 14.25 C
340 03-10-2021 04:15:00 19.2 C 75 % 14.66 C
341 03-10-2021 04:20:00 19.1 C 75 % 14.57 C
342 03-10-2021 04:25:00 19 C 75 % 14.47 C
343 03-10-2021 04:30:00 18.9 C 76 % 14.58 C
344 03-10-2021 04:35:00 18.8 C 78 % 14.88 C
345 03-10-2021 04:40:00 18.5 C 78 % 14.59 C
346 03-10-2021 04:45:00 18.4 C 78 % 14.5 C
347 03-10-2021 04:50:00 18.2 C 78 % 14.3 C
348 03-10-2021 04:55:00 18.2 C 79 % 14.5 C
349 03-10-2021 05:00:00 18.1 C 80 % 14.6 C
350 03-10-2021 05:05:00 17.9 C 79 % 14.21 C
Sensor: Nr:Datum:Temp:Feuchte:Taupunkt:
Aussen-T/F 351 03-10-2021 05:10:00 17.9 C 81 % 14.59 C
352 03-10-2021 05:15:00 17.9 C 81 % 14.59 C
353 03-10-2021 05:20:00 17.8 C 81 % 14.5 C
354 03-10-2021 05:25:00 17.7 C 82 % 14.59 C
355 03-10-2021 05:30:00 17.7 C 80 % 14.21 C
356 03-10-2021 05:35:00 17.7 C 81 % 14.4 C
357 03-10-2021 05:40:00 17.8 C 81 % 14.5 C
358 03-10-2021 05:45:00 17.8 C 80 % 14.31 C
359 03-10-2021 05:50:00 17.9 C 79 % 14.21 C
360 03-10-2021 05:55:00 18 C 79 % 14.31 C
361 03-10-2021 06:00:00 18.1 C 78 % 14.21 C
362 03-10-2021 06:05:00 18.2 C 79 % 14.5 C
363 03-10-2021 06:10:00 18.2 C 77 % 14.1 C
364 03-10-2021 06:15:00 18.3 C 78 % 14.4 C
365 03-10-2021 06:20:00 18.3 C 78 % 14.4 C
366 03-10-2021 06:25:00 18.3 C 77 % 14.2 C
367 03-10-2021 06:30:00 18.3 C 77 % 14.2 C
368 03-10-2021 06:35:00 18.5 C 75 % 13.99 C
369 03-10-2021 06:40:00 18.8 C 74 % 14.07 C
370 03-10-2021 06:45:00 18.9 C 75 % 14.37 C
371 03-10-2021 06:50:00 19 C 74 % 14.26 C
372 03-10-2021 06:55:00 19.2 C 74 % 14.46 C
373 03-10-2021 07:00:00 19.2 C 71 % 13.82 C
374 03-10-2021 07:05:00 19.4 C 71 % 14.01 C
375 03-10-2021 07:10:00 19.4 C 70 % 13.79 C
Sensor: Nr:Datum:Temp:Feuchte:Taupunkt:
Aussen-T/F 376 03-10-2021 07:15:00 19.5 C 71 % 14.1 C
377 03-10-2021 07:20:00 19.6 C 70 % 13.98 C
378 03-10-2021 07:25:00 19.6 C 70 % 13.98 C
379 03-10-2021 07:30:00 19.6 C 73 % 14.63 C
380 03-10-2021 07:35:00 19.4 C 73 % 14.44 C
381 03-10-2021 07:40:00 19.4 C 74 % 14.65 C
382 03-10-2021 07:45:00 19.2 C 75 % 14.66 C
383 03-10-2021 07:50:00 19.1 C 74 % 14.36 C
384 03-10-2021 07:55:00 18.9 C 75 % 14.37 C
385 03-10-2021 08:00:00 18.8 C 76 % 14.48 C
386 03-10-2021 08:05:00 18.7 C 76 % 14.39 C
387 03-10-2021 08:10:00 18.6 C 76 % 14.29 C
388 03-10-2021 08:15:00 18.6 C 78 % 14.69 C
389 03-10-2021 08:20:00 18.4 C 74 % 13.68 C
390 03-10-2021 08:25:00 18.6 C 73 % 13.67 C
391 03-10-2021 08:30:00 18.9 C 71 % 13.53 C
392 03-10-2021 08:35:00 19.1 C 73 % 14.15 C
393 03-10-2021 08:40:00 19.2 C 72 % 14.03 C
394 03-10-2021 08:45:00 19.2 C 73 % 14.25 C
395 03-10-2021 08:50:00 19.2 C 73 % 14.25 C
396 03-10-2021 08:55:00 19.1 C 75 % 14.57 C
397 03-10-2021 09:00:00 18.9 C 73 % 13.96 C
398 03-10-2021 09:05:00 18.9 C 73 % 13.96 C
399 03-10-2021 09:10:00 19 C 75 % 14.47 C
400 03-10-2021 09:15:00 18.9 C 72 % 13.74 C
Sensor: Nr:Datum:Temp:Feuchte:Taupunkt:
Aussen-T/F 401 03-10-2021 09:20:00 19.1 C 72 % 13.94 C
402 03-10-2021 09:25:00 19.2 C 69 % 13.38 C
403 03-10-2021 09:30:00 19.4 C 69 % 13.57 C
404 03-10-2021 09:35:00 19.6 C 73 % 14.63 C
405 03-10-2021 09:40:00 19.6 C 69 % 13.76 C
406 03-10-2021 09:45:00 19.7 C 69 % 13.86 C
407 03-10-2021 09:50:00 19.8 C 68 % 13.73 C
408 03-10-2021 09:55:00 19.9 C 70 % 14.27 C
409 03-10-2021 10:00:00 20 C 70 % 14.36 C
410 03-10-2021 10:05:00 20 C 68 % 13.92 C
411 03-10-2021 10:10:00 20.1 C 67 % 13.78 C
412 03-10-2021 10:15:00 20.2 C 68 % 14.11 C
413 03-10-2021 10:20:00 20.2 C 70 % 14.56 C
414 03-10-2021 10:25:00 20.2 C 70 % 14.56 C
415 03-10-2021 10:30:00 20.2 C 69 % 14.33 C
416 03-10-2021 10:35:00 20.2 C 69 % 14.33 C
417 03-10-2021 10:40:00 20.2 C 69 % 14.33 C
418 03-10-2021 10:45:00 20.2 C 70 % 14.56 C
419 03-10-2021 10:50:00 20.1 C 70 % 14.46 C
420 03-10-2021 10:55:00 19.9 C 72 % 14.7 C
421 03-10-2021 11:00:00 19.8 C 72 % 14.61 C
422 03-10-2021 11:05:00 19.7 C 72 % 14.51 C
423 03-10-2021 11:10:00 19.7 C 73 % 14.73 C
424 03-10-2021 11:15:00 19.7 C 73 % 14.73 C
425 03-10-2021 11:20:00 19.7 C 76 % 15.35 C
Sensor: Nr:Datum:Temp:Feuchte:Taupunkt:
Aussen-T/F 426 03-10-2021 11:25:00 19.7 C 76 % 15.35 C
427 03-10-2021 11:30:00 19.5 C 77 % 15.36 C
428 03-10-2021 11:35:00 19.3 C 76 % 14.97 C
429 03-10-2021 11:40:00 19.2 C 79 % 15.47 C
430 03-10-2021 11:45:00 19.1 C 77 % 14.97 C
431 03-10-2021 11:50:00 19.2 C 78 % 15.27 C
432 03-10-2021 11:55:00 19.2 C 77 % 15.07 C
433 03-10-2021 12:00:00 19.2 C 78 % 15.27 C
434 03-10-2021 12:05:00 19.2 C 76 % 14.87 C
435 03-10-2021 12:10:00 19.2 C 77 % 15.07 C
436 03-10-2021 12:15:00 19.3 C 74 % 14.55 C
437 03-10-2021 12:20:00 19.4 C 72 % 14.22 C
438 03-10-2021 12:25:00 19.6 C 75 % 15.05 C
439 03-10-2021 12:30:00 19.7 C 72 % 14.51 C
440 03-10-2021 12:35:00 19.8 C 70 % 14.17 C
441 03-10-2021 12:40:00 20.1 C 69 % 14.24 C
442 03-10-2021 12:45:00 20.4 C 69 % 14.52 C
443 03-10-2021 12:50:00 20.6 C 68 % 14.49 C
444 03-10-2021 12:55:00 20.7 C 70 % 15.03 C
445 03-10-2021 13:00:00 20.7 C 69 % 14.81 C
446 03-10-2021 13:05:00 20.7 C 68 % 14.58 C
447 03-10-2021 13:10:00 20.8 C 67 % 14.45 C
448 03-10-2021 13:15:00 20.9 C 67 % 14.55 C
449 03-10-2021 13:20:00 21.1 C 69 % 15.19 C
450 03-10-2021 13:25:00 21.3 C 65 % 14.46 C
Sensor: Nr:Datum:Temp:Feuchte:Taupunkt:
Aussen-T/F 451 03-10-2021 13:30:00 21.5 C 63 % 14.16 C
452 03-10-2021 13:35:00 21.8 C 63 % 14.45 C
453 03-10-2021 13:40:00 22.1 C 62 % 14.48 C
454 03-10-2021 13:45:00 22.3 C 61 % 14.42 C
455 03-10-2021 13:50:00 22.4 C 62 % 14.76 C
456 03-10-2021 13:55:00 22.5 C 62 % 14.86 C
457 03-10-2021 14:00:00 22.6 C 59 % 14.18 C
458 03-10-2021 14:05:00 22.7 C 60 % 14.54 C
459 03-10-2021 14:10:00 22.8 C 61 % 14.89 C
460 03-10-2021 14:15:00 22.8 C 61 % 14.89 C
461 03-10-2021 14:20:00 22.8 C 60 % 14.63 C
462 03-10-2021 14:25:00 22.8 C 60 % 14.63 C
463 03-10-2021 14:30:00 22.9 C 59 % 14.47 C
464 03-10-2021 14:35:00 23 C 61 % 15.08 C
465 03-10-2021 14:40:00 23.2 C 60 % 15.01 C
466 03-10-2021 14:45:00 23.1 C 58 % 14.39 C
467 03-10-2021 14:50:00 22.9 C 59 % 14.47 C
468 03-10-2021 14:55:00 22.8 C 59 % 14.37 C
469 03-10-2021 15:00:00 22.6 C 61 % 14.7 C
470 03-10-2021 15:05:00 22.4 C 60 % 14.26 C
471 03-10-2021 15:10:00 22.2 C 62 % 14.58 C
472 03-10-2021 15:15:00 21.9 C 63 % 14.54 C
473 03-10-2021 15:20:00 21.8 C 64 % 14.69 C
474 03-10-2021 15:25:00 21.6 C 65 % 14.74 C
475 03-10-2021 15:30:00 21.3 C 67 % 14.93 C
Sensor: Nr:Datum:Temp:Feuchte:Taupunkt:
Aussen-T/F 476 03-10-2021 15:35:00 20.9 C 70 % 15.23 C
477 03-10-2021 15:40:00 20.6 C 74 % 15.8 C
478 03-10-2021 15:45:00 20.2 C 77 % 16.04 C
479 03-10-2021 15:50:00 19.8 C 79 % 16.05 C
480 03-10-2021 15:55:00 19.4 C 80 % 15.86 C
481 03-10-2021 16:00:00 19.2 C 80 % 15.67 C
482 03-10-2021 16:05:00 19.2 C 81 % 15.86 C
483 03-10-2021 16:10:00 19.1 C 81 % 15.76 C
484 03-10-2021 16:15:00 19.2 C 81 % 15.86 C
485 03-10-2021 16:20:00 19.2 C 80 % 15.67 C
486 03-10-2021 16:25:00 19.3 C 80 % 15.76 C
487 03-10-2021 16:30:00 19.4 C 80 % 15.86 C
488 03-10-2021 16:35:00 19.6 C 79 % 15.86 C
489 03-10-2021 16:40:00 19.6 C 78 % 15.66 C
490 03-10-2021 16:45:00 19.6 C 77 % 15.46 C
491 03-10-2021 16:50:00 19.6 C 77 % 15.46 C
492 03-10-2021 16:55:00 19.4 C 78 % 15.47 C
493 03-10-2021 17:00:00 19.4 C 77 % 15.27 C
494 03-10-2021 17:05:00 19.3 C 78 % 15.37 C
495 03-10-2021 17:10:00 19.3 C 77 % 15.17 C
496 03-10-2021 17:15:00 19.3 C 77 % 15.17 C
497 03-10-2021 17:20:00 19.2 C 77 % 15.07 C
498 03-10-2021 17:25:00 19.2 C 76 % 14.87 C
499 03-10-2021 17:30:00 19.2 C 77 % 15.07 C
500 03-10-2021 17:35:00 19.1 C 77 % 14.97 C
Sensor: Nr:Datum:Temp:Feuchte:Taupunkt:
Aussen-T/F 501 03-10-2021 17:40:00 19.1 C 77 % 14.97 C
502 03-10-2021 17:45:00 19 C 77 % 14.88 C
503 03-10-2021 17:50:00 18.9 C 77 % 14.78 C
504 03-10-2021 17:55:00 18.9 C 78 % 14.98 C
505 03-10-2021 18:00:00 18.8 C 78 % 14.88 C
506 03-10-2021 18:05:00 18.8 C 79 % 15.08 C
507 03-10-2021 18:10:00 18.7 C 78 % 14.79 C
508 03-10-2021 18:15:00 18.7 C 79 % 14.99 C
509 03-10-2021 18:20:00 18.6 C 79 % 14.89 C
510 03-10-2021 18:25:00 18.6 C 79 % 14.89 C
511 03-10-2021 18:30:00 18.6 C 78 % 14.69 C
512 03-10-2021 18:35:00 18.6 C 79 % 14.89 C
513 03-10-2021 18:40:00 18.6 C 79 % 14.89 C
514 03-10-2021 18:45:00 18.6 C 79 % 14.89 C
515 03-10-2021 18:50:00 18.5 C 79 % 14.79 C
516 03-10-2021 18:55:00 18.5 C 79 % 14.79 C
517 03-10-2021 19:00:00 18.4 C 80 % 14.89 C
518 03-10-2021 19:05:00 18.3 C 80 % 14.79 C
519 03-10-2021 19:10:00 18.2 C 81 % 14.89 C
520 03-10-2021 19:15:00 18.1 C 81 % 14.79 C
521 03-10-2021 19:20:00 17.9 C 82 % 14.78 C
522 03-10-2021 19:25:00 17.8 C 82 % 14.69 C
523 03-10-2021 19:30:00 17.7 C 82 % 14.59 C
524 03-10-2021 19:35:00 17.6 C 82 % 14.49 C
525 03-10-2021 19:40:00 17.6 C 83 % 14.68 C
Sensor: Nr:Datum:Temp:Feuchte:Taupunkt:
Aussen-T/F 526 03-10-2021 19:45:00 17.5 C 83 % 14.58 C
527 03-10-2021 19:50:00 17.4 C 83 % 14.48 C
528 03-10-2021 19:55:00 17.3 C 82 % 14.2 C
529 03-10-2021 20:00:00 17.6 C 80 % 14.11 C
530 03-10-2021 20:05:00 17.7 C 83 % 14.78 C
531 03-10-2021 20:10:00 17.3 C 82 % 14.2 C
532 03-10-2021 20:15:00 16.7 C 84 % 13.98 C
533 03-10-2021 20:20:00 16.3 C 86 % 13.95 C
534 03-10-2021 20:25:00 15.9 C 87 % 13.74 C
535 03-10-2021 20:30:00 15.7 C 88 % 13.72 C
536 03-10-2021 20:35:00 15.6 C 88 % 13.62 C
537 03-10-2021 20:40:00 15.5 C 88 % 13.52 C
538 03-10-2021 20:45:00 15.3 C 89 % 13.5 C
539 03-10-2021 20:50:00 15.1 C 88 % 13.13 C
540 03-10-2021 20:55:00 14.9 C 88 % 12.93 C
541 03-10-2021 21:00:00 14.8 C 88 % 12.83 C
542 03-10-2021 21:05:00 14.6 C 88 % 12.64 C
543 03-10-2021 21:10:00 14.4 C 88 % 12.44 C
544 03-10-2021 21:15:00 14.3 C 88 % 12.34 C
545 03-10-2021 21:20:00 14.3 C 89 % 12.51 C
546 03-10-2021 21:25:00 14.2 C 88 % 12.24 C
547 03-10-2021 21:30:00 14 C 88 % 12.05 C
548 03-10-2021 21:35:00 13.9 C 88 % 11.95 C
549 03-10-2021 21:40:00 13.8 C 88 % 11.85 C
550 03-10-2021 21:45:00 13.8 C 88 % 11.85 C
Sensor: Nr:Datum:Temp:Feuchte:Taupunkt:
Aussen-T/F 551 03-10-2021 21:50:00 13.8 C 89 % 12.02 C
552 03-10-2021 21:55:00 13.7 C 89 % 11.92 C
553 03-10-2021 22:00:00 13.7 C 89 % 11.92 C
554 03-10-2021 22:05:00 13.6 C 89 % 11.82 C
555 03-10-2021 22:10:00 13.6 C 89 % 11.82 C
556 03-10-2021 22:15:00 13.6 C 89 % 11.82 C
557 03-10-2021 22:20:00 13.6 C 89 % 11.82 C
558 03-10-2021 22:25:00 13.5 C 89 % 11.72 C
559 03-10-2021 22:30:00 13.4 C 88 % 11.45 C
560 03-10-2021 22:35:00 13.4 C 88 % 11.45 C
561 03-10-2021 22:40:00 13.4 C 87 % 11.28 C
562 03-10-2021 22:45:00 13.4 C 87 % 11.28 C
563 03-10-2021 22:50:00 13.5 C 87 % 11.38 C
564 03-10-2021 22:55:00 13.5 C 85 % 11.03 C
565 03-10-2021 23:00:00 13.6 C 85 % 11.13 C
566 03-10-2021 23:05:00 13.6 C 85 % 11.13 C
567 03-10-2021 23:10:00 13.6 C 85 % 11.13 C
568 03-10-2021 23:15:00 13.6 C 85 % 11.13 C
569 03-10-2021 23:20:00 13.5 C 84 % 10.85 C
570 03-10-2021 23:25:00 13.5 C 84 % 10.85 C
571 03-10-2021 23:30:00 13.5 C 84 % 10.85 C
572 03-10-2021 23:35:00 13.5 C 84 % 10.85 C
573 03-10-2021 23:40:00 13.5 C 85 % 11.03 C
574 03-10-2021 23:45:00 13.4 C 85 % 10.93 C
575 03-10-2021 23:50:00 13.4 C 85 % 10.93 C
Sensor: Nr:Datum:Temp:Feuchte:Taupunkt:
Aussen-T/F 576 03-10-2021 23:55:00 13.4 C 85 % 10.93 C
577 04-10-2021 00:00:00 13.4 C 85 % 10.93 C
578 04-10-2021 00:05:00 13.3 C 86 % 11.01 C
579 04-10-2021 00:10:00 13.3 C 86 % 11.01 C
580 04-10-2021 00:15:00 13.3 C 86 % 11.01 C
581 04-10-2021 00:20:00 13.3 C 86 % 11.01 C
582 04-10-2021 00:25:00 13.3 C 86 % 11.01 C
583 04-10-2021 00:30:00 13.3 C 86 % 11.01 C
584 04-10-2021 00:35:00 13.3 C 86 % 11.01 C
585 04-10-2021 00:40:00 13.3 C 86 % 11.01 C
586 04-10-2021 00:45:00 13.3 C 86 % 11.01 C
587 04-10-2021 00:50:00 13.3 C 86 % 11.01 C
588 04-10-2021 00:55:00 13.3 C 86 % 11.01 C
589 04-10-2021 01:00:00 13.3 C 86 % 11.01 C
590 04-10-2021 01:05:00 13.3 C 86 % 11.01 C
591 04-10-2021 01:10:00 13.3 C 86 % 11.01 C
592 04-10-2021 01:15:00 13.2 C 86 % 10.91 C
593 04-10-2021 01:20:00 13.2 C 86 % 10.91 C
594 04-10-2021 01:25:00 13.1 C 87 % 10.99 C
595 04-10-2021 01:30:00 13.1 C 87 % 10.99 C
596 04-10-2021 01:35:00 13.1 C 87 % 10.99 C
597 04-10-2021 01:40:00 13 C 87 % 10.89 C
598 04-10-2021 01:45:00 13 C 87 % 10.89 C
599 04-10-2021 01:50:00 13 C 87 % 10.89 C
600 04-10-2021 01:55:00 12.9 C 88 % 10.96 C
Sensor: Nr:Datum:Temp:Feuchte:Taupunkt:
Aussen-T/F 601 04-10-2021 02:00:00 12.9 C 88 % 10.96 C
602 04-10-2021 02:05:00 12.8 C 88 % 10.86 C
603 04-10-2021 02:10:00 12.8 C 88 % 10.86 C
604 04-10-2021 02:15:00 12.9 C 87 % 10.79 C
605 04-10-2021 02:20:00 12.9 C 87 % 10.79 C
606 04-10-2021 02:25:00 12.9 C 87 % 10.79 C
607 04-10-2021 02:30:00 12.9 C 87 % 10.79 C
608 04-10-2021 02:35:00 12.9 C 86 % 10.62 C
609 04-10-2021 02:40:00 13 C 86 % 10.72 C
610 04-10-2021 02:45:00 13 C 86 % 10.72 C
611 04-10-2021 02:50:00 12.9 C 86 % 10.62 C
612 04-10-2021 02:55:00 12.9 C 86 % 10.62 C
613 04-10-2021 03:00:00 12.9 C 86 % 10.62 C
614 04-10-2021 03:05:00 12.9 C 86 % 10.62 C
615 04-10-2021 03:10:00 12.9 C 86 % 10.62 C
616 04-10-2021 03:15:00 12.9 C 86 % 10.62 C
617 04-10-2021 03:20:00 12.9 C 86 % 10.62 C
618 04-10-2021 03:25:00 12.9 C 86 % 10.62 C
619 04-10-2021 03:30:00 12.8 C 87 % 10.69 C
620 04-10-2021 03:35:00 12.8 C 87 % 10.69 C
621 04-10-2021 03:40:00 12.8 C 87 % 10.69 C
622 04-10-2021 03:45:00 12.8 C 88 % 10.86 C
623 04-10-2021 03:50:00 12.7 C 87 % 10.59 C
624 04-10-2021 03:55:00 12.6 C 88 % 10.67 C
625 04-10-2021 04:00:00 12.5 C 88 % 10.57 C
Sensor: Nr:Datum:Temp:Feuchte:Taupunkt:
Aussen-T/F 626 04-10-2021 04:05:00 12.4 C 88 % 10.47 C
627 04-10-2021 04:10:00 12.3 C 88 % 10.37 C
628 04-10-2021 04:15:00 12.3 C 89 % 10.54 C
629 04-10-2021 04:20:00 12.3 C 89 % 10.54 C
630 04-10-2021 04:25:00 12.3 C 89 % 10.54 C
631 04-10-2021 04:30:00 12.3 C 90 % 10.71 C
632 04-10-2021 04:35:00 12.3 C 90 % 10.71 C
633 04-10-2021 04:40:00 12.3 C 90 % 10.71 C
634 04-10-2021 04:45:00 12.3 C 90 % 10.71 C
635 04-10-2021 04:50:00 12.3 C 90 % 10.71 C
636 04-10-2021 04:55:00 12.3 C 90 % 10.71 C
637 04-10-2021 05:00:00 12.3 C 91 % 10.87 C
638 04-10-2021 05:05:00 12.3 C 91 % 10.87 C
639 04-10-2021 05:10:00 12.3 C 91 % 10.87 C
640 04-10-2021 05:15:00 12.3 C 91 % 10.87 C
641 04-10-2021 05:20:00 12.2 C 91 % 10.78 C
642 04-10-2021 05:25:00 12.2 C 91 % 10.78 C
643 04-10-2021 05:30:00 12.1 C 91 % 10.68 C
644 04-10-2021 05:35:00 12.1 C 91 % 10.68 C
645 04-10-2021 05:40:00 12 C 91 % 10.58 C
646 04-10-2021 05:45:00 11.9 C 91 % 10.48 C
647 04-10-2021 05:50:00 11.9 C 91 % 10.48 C
648 04-10-2021 05:55:00 11.9 C 92 % 10.64 C
649 04-10-2021 06:00:00 11.9 C 92 % 10.64 C
650 04-10-2021 06:05:00 11.9 C 92 % 10.64 C
Sensor: Nr:Datum:Temp:Feuchte:Taupunkt:
Aussen-T/F 651 04-10-2021 06:10:00 11.9 C 92 % 10.64 C
652 04-10-2021 06:15:00 11.9 C 92 % 10.64 C
653 04-10-2021 06:20:00 11.9 C 92 % 10.64 C
654 04-10-2021 06:25:00 11.8 C 92 % 10.54 C
655 04-10-2021 06:30:00 11.8 C 92 % 10.54 C
656 04-10-2021 06:35:00 11.7 C 92 % 10.44 C
657 04-10-2021 06:40:00 11.7 C 92 % 10.44 C
658 04-10-2021 06:45:00 11.7 C 92 % 10.44 C
659 04-10-2021 06:50:00 11.7 C 92 % 10.44 C
660 04-10-2021 06:55:00 11.7 C 92 % 10.44 C
661 04-10-2021 07:00:00 11.7 C 93 % 10.61 C
662 04-10-2021 07:05:00 11.8 C 93 % 10.71 C
663 04-10-2021 07:10:00 11.8 C 93 % 10.71 C
664 04-10-2021 07:15:00 11.8 C 93 % 10.71 C
665 04-10-2021 07:20:00 11.8 C 93 % 10.71 C
666 04-10-2021 07:25:00 11.8 C 93 % 10.71 C
667 04-10-2021 07:30:00 11.8 C 93 % 10.71 C
668 04-10-2021 07:35:00 11.8 C 93 % 10.71 C
669 04-10-2021 07:40:00 11.8 C 93 % 10.71 C
670 04-10-2021 07:45:00 11.8 C 93 % 10.71 C
671 04-10-2021 07:50:00 11.8 C 92 % 10.54 C
672 04-10-2021 07:55:00 11.8 C 92 % 10.54 C
673 04-10-2021 08:00:00 11.9 C 92 % 10.64 C
674 04-10-2021 08:05:00 11.9 C 92 % 10.64 C
675 04-10-2021 08:10:00 11.9 C 92 % 10.64 C
Sensor: Nr:Datum:Temp:Feuchte:Taupunkt:
Aussen-T/F 676 04-10-2021 08:15:00 11.9 C 92 % 10.64 C
677 04-10-2021 08:20:00 12 C 92 % 10.74 C
678 04-10-2021 08:25:00 12 C 93 % 10.9 C
679 04-10-2021 08:30:00 12.1 C 93 % 11 C
680 04-10-2021 08:35:00 12.1 C 93 % 11 C
681 04-10-2021 08:40:00 12.1 C 93 % 11 C
682 04-10-2021 08:45:00 12.2 C 93 % 11.1 C
683 04-10-2021 08:50:00 12.2 C 93 % 11.1 C
684 04-10-2021 08:55:00 12.3 C 93 % 11.2 C
685 04-10-2021 09:00:00 12.3 C 93 % 11.2 C
686 04-10-2021 09:05:00 12.3 C 93 % 11.2 C
687 04-10-2021 09:10:00 12.4 C 93 % 11.3 C
688 04-10-2021 09:15:00 12.5 C 93 % 11.4 C
689 04-10-2021 09:20:00 12.5 C 93 % 11.4 C
690 04-10-2021 09:25:00 12.6 C 93 % 11.5 C
691 04-10-2021 09:30:00 12.6 C 93 % 11.5 C
692 04-10-2021 09:35:00 12.7 C 93 % 11.6 C
693 04-10-2021 09:40:00 12.7 C 93 % 11.6 C
694 04-10-2021 09:45:00 12.8 C 93 % 11.7 C
695 04-10-2021 09:50:00 12.9 C 93 % 11.8 C
696 04-10-2021 09:55:00 12.9 C 93 % 11.8 C
697 04-10-2021 10:00:00 13 C 92 % 11.73 C
698 04-10-2021 10:05:00 13 C 92 % 11.73 C
699 04-10-2021 10:10:00 13.1 C 92 % 11.83 C
700 04-10-2021 10:15:00 13.1 C 90 % 11.5 C
Sensor: Nr:Datum:Temp:Feuchte:Taupunkt:
Aussen-T/F 701 04-10-2021 10:20:00 13.2 C 90 % 11.6 C
702 04-10-2021 10:25:00 13.3 C 89 % 11.53 C
703 04-10-2021 10:30:00 13.5 C 88 % 11.55 C
704 04-10-2021 10:35:00 13.7 C 88 % 11.75 C
705 04-10-2021 10:40:00 13.8 C 88 % 11.85 C
706 04-10-2021 10:45:00 13.9 C 87 % 11.77 C
707 04-10-2021 10:50:00 14.1 C 86 % 11.8 C
708 04-10-2021 10:55:00 14.2 C 86 % 11.89 C
709 04-10-2021 11:00:00 14.3 C 85 % 11.81 C
710 04-10-2021 11:05:00 14.4 C 85 % 11.91 C
711 04-10-2021 11:10:00 14.5 C 83 % 11.65 C
712 04-10-2021 11:15:00 14.6 C 83 % 11.75 C
713 04-10-2021 11:20:00 14.7 C 82 % 11.66 C
714 04-10-2021 11:25:00 14.8 C 82 % 11.76 C
715 04-10-2021 11:30:00 14.9 C 82 % 11.86 C
716 04-10-2021 11:35:00 15 C 81 % 11.77 C
717 04-10-2021 11:40:00 15.1 C 81 % 11.87 C
718 04-10-2021 11:45:00 15.2 C 80 % 11.78 C
719 04-10-2021 11:50:00 15.2 C 79 % 11.59 C
720 04-10-2021 11:55:00 15.3 C 80 % 11.87 C
721 04-10-2021 12:00:00 15.4 C 80 % 11.97 C
722 04-10-2021 12:05:00 15.5 C 79 % 11.88 C
723 04-10-2021 12:10:00 15.6 C 79 % 11.97 C
724 04-10-2021 12:15:00 15.8 C 78 % 11.97 C
725 04-10-2021 12:20:00 15.8 C 77 % 11.78 C
Sensor: Nr:Datum:Temp:Feuchte:Taupunkt:
Aussen-T/F 726 04-10-2021 12:25:00 15.8 C 77 % 11.78 C
727 04-10-2021 12:30:00 15.9 C 76 % 11.68 C
728 04-10-2021 12:35:00 16 C 76 % 11.77 C
729 04-10-2021 12:40:00 16.1 C 75 % 11.67 C
730 04-10-2021 12:45:00 16.2 C 77 % 12.17 C
731 04-10-2021 12:50:00 16.3 C 75 % 11.86 C
732 04-10-2021 12:55:00 16.3 C 74 % 11.66 C
733 04-10-2021 13:00:00 16.4 C 74 % 11.76 C
734 04-10-2021 13:05:00 16.4 C 74 % 11.76 C
735 04-10-2021 13:10:00 16.5 C 73 % 11.65 C
736 04-10-2021 13:15:00 16.6 C 73 % 11.74 C
737 04-10-2021 13:20:00 16.6 C 72 % 11.54 C
738 04-10-2021 13:25:00 16.6 C 73 % 11.74 C
739 04-10-2021 13:30:00 16.7 C 73 % 11.84 C
740 04-10-2021 13:35:00 16.7 C 72 % 11.63 C
741 04-10-2021 13:40:00 16.8 C 71 % 11.52 C
742 04-10-2021 13:45:00 16.9 C 72 % 11.82 C
743 04-10-2021 13:50:00 16.9 C 71 % 11.61 C
744 04-10-2021 13:55:00 17 C 71 % 11.71 C
745 04-10-2021 14:00:00 16.9 C 70 % 11.4 C
746 04-10-2021 14:05:00 16.8 C 70 % 11.3 C
747 04-10-2021 14:10:00 16.8 C 70 % 11.3 C
748 04-10-2021 14:15:00 16.8 C 70 % 11.3 C
749 04-10-2021 14:20:00 16.9 C 69 % 11.18 C
750 04-10-2021 14:25:00 17.1 C 71 % 11.8 C
Sensor: Nr:Datum:Temp:Feuchte:Taupunkt:
Aussen-T/F 751 04-10-2021 14:30:00 17.1 C 70 % 11.59 C
752 04-10-2021 14:35:00 17.2 C 70 % 11.68 C
753 04-10-2021 14:40:00 17.2 C 71 % 11.9 C
754 04-10-2021 14:45:00 17.2 C 69 % 11.47 C
755 04-10-2021 14:50:00 17.2 C 67 % 11.02 C
756 04-10-2021 14:55:00 17.2 C 67 % 11.02 C
757 04-10-2021 15:00:00 17.3 C 68 % 11.34 C
758 04-10-2021 15:05:00 17.3 C 71 % 12 C
759 04-10-2021 15:10:00 17.3 C 71 % 12 C
760 04-10-2021 15:15:00 17.4 C 69 % 11.66 C
761 04-10-2021 15:20:00 17.5 C 68 % 11.53 C
762 04-10-2021 15:25:00 17.6 C 67 % 11.4 C
763 04-10-2021 15:30:00 17.6 C 70 % 12.07 C
764 04-10-2021 15:35:00 17.6 C 69 % 11.85 C
765 04-10-2021 15:40:00 17.6 C 69 % 11.85 C
766 04-10-2021 15:45:00 17.7 C 67 % 11.5 C
767 04-10-2021 15:50:00 17.7 C 68 % 11.72 C
768 04-10-2021 15:55:00 17.7 C 68 % 11.72 C
769 04-10-2021 16:00:00 17.6 C 67 % 11.4 C
770 04-10-2021 16:05:00 17.5 C 67 % 11.31 C
771 04-10-2021 16:10:00 17.4 C 69 % 11.66 C
772 04-10-2021 16:15:00 17.3 C 72 % 12.21 C
773 04-10-2021 16:20:00 17.2 C 70 % 11.68 C
774 04-10-2021 16:25:00 17.2 C 72 % 12.11 C
775 04-10-2021 16:30:00 17.2 C 74 % 12.53 C
Sensor: Nr:Datum:Temp:Feuchte:Taupunkt:
Aussen-T/F 776 04-10-2021 16:35:00 17.1 C 76 % 12.84 C
777 04-10-2021 16:40:00 16.9 C 75 % 12.44 C
778 04-10-2021 16:45:00 16.8 C 76 % 12.55 C
779 04-10-2021 16:50:00 16.7 C 76 % 12.45 C
780 04-10-2021 16:55:00 16.7 C 78 % 12.85 C
781 04-10-2021 17:00:00 16.6 C 77 % 12.55 C
782 04-10-2021 17:05:00 16.4 C 78 % 12.56 C
783 04-10-2021 17:10:00 16.3 C 77 % 12.26 C
784 04-10-2021 17:15:00 16.3 C 78 % 12.46 C
785 04-10-2021 17:20:00 16.3 C 76 % 12.07 C
786 04-10-2021 17:25:00 16.4 C 78 % 12.56 C
787 04-10-2021 17:30:00 16.5 C 79 % 12.85 C
788 04-10-2021 17:35:00 16.7 C 79 % 13.04 C
789 04-10-2021 17:40:00 17.1 C 79 % 13.43 C
790 04-10-2021 17:45:00 17.4 C 76 % 13.13 C
791 04-10-2021 17:50:00 17.9 C 76 % 13.61 C
792 04-10-2021 17:55:00 18.3 C 74 % 13.59 C
793 04-10-2021 18:00:00 18.5 C 74 % 13.78 C
794 04-10-2021 18:05:00 18.6 C 73 % 13.67 C
795 04-10-2021 18:10:00 18.6 C 73 % 13.67 C
796 04-10-2021 18:15:00 18.4 C 73 % 13.48 C
797 04-10-2021 18:20:00 18.2 C 72 % 13.07 C
798 04-10-2021 18:25:00 17.9 C 73 % 12.99 C
799 04-10-2021 18:30:00 17.5 C 73 % 12.61 C
800 04-10-2021 18:35:00 17.1 C 74 % 12.43 C
Sensor: Nr:Datum:Temp:Feuchte:Taupunkt:
Aussen-T/F 801 04-10-2021 18:40:00 16.7 C 74 % 12.05 C
802 04-10-2021 18:45:00 16.2 C 74 % 11.56 C
803 04-10-2021 18:50:00 15.8 C 76 % 11.58 C
804 04-10-2021 18:55:00 15.3 C 77 % 11.3 C
805 04-10-2021 19:00:00 14.8 C 78 % 11 C
806 04-10-2021 19:05:00 14.3 C 79 % 10.71 C
807 04-10-2021 19:10:00 13.8 C 80 % 10.41 C
808 04-10-2021 19:15:00 13.5 C 81 % 10.31 C
809 04-10-2021 19:20:00 13.2 C 82 % 10.2 C
810 04-10-2021 19:25:00 12.9 C 83 % 10.09 C
811 04-10-2021 19:30:00 12.8 C 84 % 10.17 C
812 04-10-2021 19:35:00 12.6 C 84 % 9.97 C
813 04-10-2021 19:40:00 12.4 C 85 % 9.95 C
814 04-10-2021 19:45:00 12.2 C 85 % 9.76 C
815 04-10-2021 19:50:00 12.1 C 86 % 9.83 C
816 04-10-2021 19:55:00 11.9 C 86 % 9.64 C
817 04-10-2021 20:00:00 11.8 C 87 % 9.71 C
818 04-10-2021 20:05:00 11.7 C 87 % 9.61 C
819 04-10-2021 20:10:00 11.6 C 88 % 9.68 C
820 04-10-2021 20:15:00 11.5 C 88 % 9.58 C
821 04-10-2021 20:20:00 11.4 C 88 % 9.49 C
822 04-10-2021 20:25:00 11.3 C 88 % 9.39 C
823 04-10-2021 20:30:00 11.2 C 89 % 9.46 C
824 04-10-2021 20:35:00 11.1 C 89 % 9.36 C
825 04-10-2021 20:40:00 11 C 89 % 9.26 C
Sensor: Nr:Datum:Temp:Feuchte:Taupunkt:
Aussen-T/F 826 04-10-2021 20:45:00 10.9 C 89 % 9.16 C
827 04-10-2021 20:50:00 10.8 C 90 % 9.23 C
828 04-10-2021 20:55:00 10.8 C 90 % 9.23 C
829 04-10-2021 21:00:00 10.7 C 90 % 9.13 C
830 04-10-2021 21:05:00 10.7 C 90 % 9.13 C
831 04-10-2021 21:10:00 10.6 C 90 % 9.03 C
832 04-10-2021 21:15:00 10.5 C 90 % 8.93 C
833 04-10-2021 21:20:00 10.4 C 90 % 8.83 C
834 04-10-2021 21:25:00 10.4 C 91 % 9 C
835 04-10-2021 21:30:00 10.4 C 91 % 9 C
836 04-10-2021 21:35:00 10.3 C 91 % 8.9 C
837 04-10-2021 21:40:00 10.3 C 91 % 8.9 C
838 04-10-2021 21:45:00 10.3 C 91 % 8.9 C
839 04-10-2021 21:50:00 10.3 C 91 % 8.9 C
840 04-10-2021 21:55:00 10.3 C 91 % 8.9 C
841 04-10-2021 22:00:00 10.3 C 92 % 9.06 C
842 04-10-2021 22:05:00 10.3 C 92 % 9.06 C
843 04-10-2021 22:10:00 10.3 C 92 % 9.06 C
844 04-10-2021 22:15:00 10.4 C 92 % 9.16 C
845 04-10-2021 22:20:00 10.4 C 92 % 9.16 C
846 04-10-2021 22:25:00 10.4 C 92 % 9.16 C
847 04-10-2021 22:30:00 10.4 C 92 % 9.16 C
848 04-10-2021 22:35:00 10.4 C 92 % 9.16 C
849 04-10-2021 22:40:00 10.4 C 92 % 9.16 C
850 04-10-2021 22:45:00 10.4 C 92 % 9.16 C
Sensor: Nr:Datum:Temp:Feuchte:Taupunkt:
Aussen-T/F 851 04-10-2021 22:50:00 10.4 C 92 % 9.16 C
852 04-10-2021 22:55:00 10.3 C 92 % 9.06 C
853 04-10-2021 23:00:00 10.3 C 92 % 9.06 C
854 04-10-2021 23:05:00 10.2 C 92 % 8.96 C
855 04-10-2021 23:10:00 10.2 C 92 % 8.96 C
856 04-10-2021 23:15:00 10.1 C 92 % 8.86 C
857 04-10-2021 23:20:00 10.1 C 92 % 8.86 C
858 04-10-2021 23:25:00 10 C 92 % 8.76 C
859 04-10-2021 23:30:00 9.9 C 93 % 8.82 C
860 04-10-2021 23:35:00 9.9 C 92 % 8.66 C
861 04-10-2021 23:40:00 9.9 C 93 % 8.82 C
862 04-10-2021 23:45:00 9.8 C 93 % 8.72 C
863 04-10-2021 23:50:00 9.8 C 93 % 8.72 C
864 04-10-2021 23:55:00 9.8 C 93 % 8.72 C

Legende:
   Min
   Max


Maximal/Minimal-Werte vom 02.10.2021 - 04.10.2021

Sensor Min Max Avg
Temp
(Aussen-T/F)
9.8 °C
04-10-2021  23:45:00
23.2 °C
03-10-2021  14:40:00
15.71 °C
Feuchte
(Aussen-T/F)
58 %
03-10-2021  14:45:00
95 %
02-10-2021  08:45:00
82.55 %
Taupunkt
(Aussen-T/F)
8.66 C
04-10-2021  23:35:00
16.05 C
03-10-2021  15:50:00
12.63 C

Die Daten stammen von einer Davis Vantage Pro 2 Wetter-Station und werden unter Linux mit der Software wview2wettercgi und aufbereitet. Alle Angaben erfolgen ohne Gewähr für ihre Vollständigkeit oder Richtigkeit.
Kontakt: Rainer Krienke krienke@uni-koblenz.de . Meine Webseiten an der Uni Koblenz oder privat.
Version: $Revision: 0.78 $